When you browse on this site, cookies collect data to enhance your experience and personalize the content and advertising you see.
Visit our Privacy Policy to learn more. By continuing to use the site, you agree to this use of cookies and data.
  • In Italy
  • List of Countries
  • For 7 days
  • Water Temperature
  • Satellite Maps
  • Weather Map
  • Weather Widgets
  • user-avatar
    Login

    Hourly Weather Guarda

    Today, 17 November, Saturday

    Time Temperature Precipitation Wind Pressure Humidity
    00:00 +8°C° 0 mm 2 mps 685 mmHg 90%
    01:00 +8°C° 0 mm 2 mps 685 mmHg 90%
    02:00 +7°C° 0 mm 2 mps 685 mmHg 90%
    03:00 +7°C° 0 mm 2 mps 685 mmHg 90%
    04:00 +7°C° 0 mm 2 mps 685 mmHg 91%
    05:00 +7°C° 0 mm 2 mps 685 mmHg 92%
    06:00 +7°C° 0 mm 2 mps 684 mmHg 92%
    07:00 +7°C° 0 mm 3 mps 684 mmHg 89%
    08:00 +8°C° 0 mm 3 mps 684 mmHg 86%
    09:00 +8°C° 0 mm 4 mps 684 mmHg 83%
    10:00 +11°C° 0 mm 4 mps 684 mmHg 77%
    11:00 +12°C° 0 mm 5 mps 685 mmHg 71%
    12:00 +13°C° 0 mm 5 mps 685 mmHg 64%
    13:00 +14°C° 0 mm 5 mps 684 mmHg 64%
    14:00 +14°C° 0 mm 5 mps 684 mmHg 63%
    15:00 +14°C° 0 mm 5 mps 683 mmHg 63%
    16:00 +13°C° 0 mm 4 mps 683 mmHg 68%
    17:00 +12°C° 0 mm 4 mps 682 mmHg 74%
    18:00 +10°C° 0 mm 3 mps 682 mmHg 79%
    19:00 +10°C° 0 mm 3 mps 681 mmHg 79%
    20:00 +10°C° 0 mm 3 mps 681 mmHg 79%
    21:00 +9°C° 0 mm 3 mps 681 mmHg 78%
    22:00 +9°C° 0 mm 3 mps 680 mmHg 78%
    23:00 +9°C° 0 mm 3 mps 680 mmHg 78%

    Tomorrow, 18 November, Sunday

    Time Temperature Precipitation Wind Pressure Humidity
    00:00 +9°C° 0 mm 3 mps 680 mmHg 78%
    01:00 +9°C° 0.1 mm 3 mps 679 mmHg 79%
    02:00 +9°C° 0.1 mm 3 mps 679 mmHg 80%
    03:00 +9°C° 0.1 mm 3 mps 679 mmHg 81%
    04:00 +9°C° 0.3 mm 3 mps 678 mmHg 83%
    05:00 +8°C° 0.3 mm 4 mps 678 mmHg 84%
    06:00 +8°C° 0.3 mm 4 mps 677 mmHg 86%
    07:00 +8°C° 0.9 mm 4 mps 677 mmHg 87%
    08:00 +8°C° 0.9 mm 4 mps 678 mmHg 88%
    09:00 +8°C° 0.9 mm 4 mps 678 mmHg 89%
    10:00 +8°C° 0.3 mm 4 mps 678 mmHg 88%
    11:00 +8°C° 0.3 mm 4 mps 678 mmHg 87%
    12:00 +10°C° 0.3 mm 4 mps 678 mmHg 85%
    13:00 +10°C° 0.1 mm 4 mps 677 mmHg 85%
    14:00 +10°C° 0.1 mm 4 mps 677 mmHg 84%
    15:00 +10°C° 0.1 mm 3 mps 677 mmHg 83%
    16:00 +9°C° 0 mm 3 mps 677 mmHg 87%
    17:00 +8°C° 0 mm 2 mps 677 mmHg 90%
    18:00 +7°C° 0 mm 2 mps 677 mmHg 93%
    19:00 +8°C° 0 mm 1 mps 677 mmHg 93%
    20:00 +8°C° 0 mm 1 mps 677 mmHg 94%
    21:00 +8°C° 0 mm 1 mps 677 mmHg 94%
    22:00 +8°C° 0.1 mm 1 mps 677 mmHg 94%
    23:00 +8°C° 0.1 mm 1 mps 677 mmHg 93%

    Day after tomorrow, 19 November, Monday

    Time Temperature Precipitation Wind Pressure Humidity
    00:00 +8°C° 0.1 mm 1 mps 677 mmHg 93%
    01:00 +8°C° 0.1 mm 1 mps 677 mmHg 94%
    02:00 +8°C° 0.1 mm 1 mps 677 mmHg 94%
    03:00 +8°C° 0.1 mm 1 mps 677 mmHg 95%
    04:00 +8°C° 0.1 mm 1 mps 677 mmHg 95%
    05:00 +8°C° 0.1 mm 1 mps 677 mmHg 95%
    06:00 +6°C° 0.1 mm 0 mps 677 mmHg 95%
    07:00 +7°C° 0 mm 0 mps 678 mmHg 93%
    08:00 +7°C° 0 mm 0 mps 678 mmHg 91%
    09:00 +8°C° 0 mm 0 mps 679 mmHg 89%
    10:00 +10°C° 0 mm 1 mps 679 mmHg 84%
    11:00 +11°C° 0 mm 1 mps 679 mmHg 79%
    12:00 +12°C° 0 mm 1 mps 679 mmHg 73%
    13:00 +12°C° 0 mm 1 mps 679 mmHg 73%
    14:00 +12°C° 0 mm 1 mps 679 mmHg 73%
    15:00 +12°C° 0 mm 1 mps 679 mmHg 73%
    16:00 +11°C° 0 mm 1 mps 679 mmHg 79%
    17:00 +10°C° 0 mm 1 mps 679 mmHg 84%
    18:00 +8°C° 0 mm 1 mps 679 mmHg 89%
    19:00 +8°C° 0 mm 1 mps 679 mmHg 91%
    20:00 +8°C° 0 mm 1 mps 679 mmHg 92%
    21:00 +8°C° 0 mm 1 mps 680 mmHg 93%
    22:00 +7°C° 0 mm 1 mps 680 mmHg 94%
    23:00 +7°C° 0 mm 1 mps 680 mmHg 95%

    20 November, Tuesday

    Time Temperature Precipitation Wind Pressure Humidity
    00:00 +7°C° 0 mm 1 mps 680 mmHg 95%
    01:00 +7°C° 0 mm 1 mps 680 mmHg 95%
    02:00 +7°C° 0 mm 1 mps 680 mmHg 96%
    03:00 +6°C° 0 mm 1 mps 680 mmHg 96%
    04:00 +6°C° 0 mm 1 mps 680 mmHg 96%
    05:00 +6°C° 0 mm 1 mps 680 mmHg 96%
    06:00 +6°C° 0 mm 1 mps 679 mmHg 96%
    07:00 +7°C° 0 mm 1 mps 680 mmHg 94%
    08:00 +6°C° 0 mm 2 mps 680 mmHg 92%
    09:00 +7°C° 0 mm 2 mps 680 mmHg 90%
    10:00 +8°C° 0 mm 2 mps 681 mmHg 83%
    11:00 +9°C° 0 mm 3 mps 681 mmHg 76%
    12:00 +10°C° 0 mm 4 mps 681 mmHg 69%
    13:00 +10°C° 0.1 mm 4 mps 680 mmHg 69%
    14:00 +10°C° 0.1 mm 4 mps 680 mmHg 69%
    15:00 +10°C° 0.1 mm 4 mps 679 mmHg 69%
    16:00 +7°C° 0.1 mm 4 mps 679 mmHg 76%
    17:00 +7°C° 0.1 mm 3 mps 679 mmHg 83%
    18:00 +6°C° 0.1 mm 2 mps 679 mmHg 90%
    19:00 +6°C° 0 mm 2 mps 679 mmHg 92%
    20:00 +6°C° 0 mm 2 mps 679 mmHg 93%
    21:00 +5°C° 0 mm 2 mps 680 mmHg 95%
    22:00 +5°C° 0 mm 2 mps 680 mmHg 95%
    23:00 +5°C° 0 mm 2 mps 680 mmHg 96%

    21 November, Wednesday

    Time Temperature Precipitation Wind Pressure Humidity
    00:00 +5°C° 0 mm 2 mps 680 mmHg 96%
    01:00 +6°C° 0 mm 1 mps 680 mmHg 96%
    02:00 +6°C° 0 mm 1 mps 680 mmHg 96%
    03:00 +6°C° 0 mm 1 mps 680 mmHg 96%
    04:00 +6°C° 0.1 mm 1 mps 681 mmHg 95%
    05:00 +6°C° 0.1 mm 1 mps 681 mmHg 94%
    06:00 +5°C° 0.1 mm 2 mps 681 mmHg 94%
    07:00 +5°C° 0.1 mm 2 mps 681 mmHg 92%
    08:00 +5°C° 0.1 mm 2 mps 682 mmHg 90%
    09:00 +5°C° 0.1 mm 2 mps 682 mmHg 87%
    10:00 +5°C° 0.1 mm 2 mps 682 mmHg 83%
    11:00 +6°C° 0.1 mm 2 mps 683 mmHg 78%
    12:00 +6°C° 0.1 mm 2 mps 683 mmHg 73%
    13:00 +7°C° 0 mm 2 mps 683 mmHg 70%
    14:00 +7°C° 0 mm 2 mps 683 mmHg 67%
    15:00 +7°C° 0 mm 2 mps 683 mmHg 64%
    16:00 +6°C° 0 mm 2 mps 683 mmHg 68%
    17:00 +5°C° 0 mm 2 mps 683 mmHg 73%
    18:00 +4°C° 0 mm 1 mps 683 mmHg 78%
    19:00 +4°C° 0 mm 1 mps 683 mmHg 79%
    20:00 +3°C° 0 mm 1 mps 683 mmHg 81%
    21:00 +3°C° 0 mm 1 mps 684 mmHg 83%
    22:00 +2°C° 0 mm 1 mps 684 mmHg 83%
    23:00 +2°C° 0 mm 1 mps 684 mmHg 84%

    22 November, Thursday

    Time Temperature Precipitation Wind Pressure Humidity
    00:00 +1°C° 0 mm 0 mps 684 mmHg 84%
    01:00 0°C° 0 mm 0 mps 684 mmHg 84%
    02:00 0°C° 0 mm 0 mps 684 mmHg 85%
    03:00 0°C° 0 mm 0 mps 684 mmHg 85%
    04:00 0°C° 0 mm 0 mps 684 mmHg 85%
    05:00 0°C° 0 mm 0 mps 684 mmHg 84%
    06:00 -1°C° 0 mm 0 mps 684 mmHg 84%
    07:00 +1°C° 0 mm 0 mps 685 mmHg 80%
    08:00 +2°C° 0 mm 0 mps 685 mmHg 76%
    09:00 +3°C° 0 mm 0 mps 686 mmHg 71%
    10:00 +5°C° 0 mm 1 mps 686 mmHg 65%
    11:00 +7°C° 0 mm 1 mps 686 mmHg 58%
    12:00 +8°C° 0 mm 1 mps 687 mmHg 51%
    13:00 +8°C° 0 mm 1 mps 686 mmHg 50%
    14:00 +8°C° 0 mm 2 mps 686 mmHg 49%
    15:00 +8°C° 0 mm 2 mps 686 mmHg 49%
    16:00 +7°C° 0 mm 1 mps 686 mmHg 56%
    17:00 +5°C° 0 mm 1 mps 686 mmHg 64%
    18:00 +3°C° 0 mm 1 mps 686 mmHg 72%
    19:00 +3°C° 0 mm 1 mps 686 mmHg 74%
    20:00 +3°C° 0 mm 1 mps 686 mmHg 76%
    21:00 +2°C° 0 mm 1 mps 686 mmHg 78%
    22:00 +2°C° 0 mm 1 mps 686 mmHg 79%
    23:00 +2°C° 0 mm 1 mps 686 mmHg 80%
    Show more